Location: Antin
(43.3330°N, 0.2804°E)
Time: 11:24:06
(UTC+00:00)

Daily predictions for brighter satellites

Satellite Brightness Start Highest point End
(mag) Time Altitude Azimuth Time Altitude Azimuth Time Altitude Azimuth
Cosmos 44 3.4 19:54:19 10° NW 19:59:07 74° WSW 20:03:34 10° SSE
Cosmos 2034 Rocket 4.0 19:58:48 10° N 20:05:05 81° E 20:11:23 10° S
Cosmos 2084 3.3 20:02:16 10° NW 20:06:01 71° SW 20:09:47 10° SSE
USA 229 DEB 4.2 20:00:40 10° NNW 20:08:06 67° NE 20:16:08 10° SE
USA 229 4.2 20:00:45 10° NNW 20:08:12 66° NE 20:16:15 10° SE
Cosmos 1371 Rocket 4.1 20:03:11 10° NNW 20:08:35 87° WSW 20:13:56 10° SSE
Cosmos 1420 Rocket 4.4 20:08:19 10° NNW 20:13:35 66° WSW 20:18:49 10° S
Cosmos 1378 3.9 20:11:46 10° SSW 20:14:55 47° W 20:18:07 10° N
SeaSat 1 3.4 20:11:29 10° S 20:16:08 44° WSW 20:20:50 10° NW
PSLV R/B 4.3 20:15:04 10° S 20:18:44 57° W 20:22:23 10° NNW
Cosmos 1726 3.4 20:17:17 10° NNE 20:19:37 19° ENE 20:21:30 12° ESE
USA 306 4.0 20:17:15 10° NW 20:20:40 32° NNE 20:24:13 10° E
USA 59 Rocket 2.4 20:20:00 10° NNE 20:21:41 12° NE 20:23:34 10° ENE
Cosmos 1943 Rocket 4.5 20:18:15 10° NW 20:22:20 21° W 20:26:23 10° SSW
Tsikada Rocket 4.0 20:16:09 10° S 20:22:20 79° E 20:28:37 10° N
Cosmos 1943 3.3 20:19:21 10° S 20:24:54 57° ESE 20:30:26 10° NNE
IRS-1C Rocket 4.4 20:21:18 10° SE 20:26:21 52° ENE 20:31:28 10° N
Cosmos 1842 Rocket 4.0 20:22:36 10° SSE 20:26:47 42° E 20:30:57 10° NNE
USA 276 2.0 20:26:02 10° WNW 20:28:05 38° SW 20:29:24 18° SSE
Resurs 01 Rocket 2.9 20:25:14 10° SSW 20:29:23 39° W 20:33:34 10° NNW
Okean 3 Rocket 4.0 20:25:25 10° N 20:29:37 43° ENE 20:33:10 14° SSE
ISS -3.4 20:27:52 10° NW 20:31:12 58° NNE 20:33:56 14° ESE
Okean O Rocket 3.0 20:35:32 10° SSW 20:39:37 37° W 20:43:45 10° NNW
SPOT 3 Rocket 4.5 20:36:08 14° SE 20:39:52 33° ENE 20:44:25 10° N
CZ-4 R/B 4.2 20:38:48 10° WSW 20:40:20 12° W 20:41:54 10° WNW
Cosmos 2221 3.4 20:39:05 10° SSW 20:43:16 50° WNW 20:47:30 10° N
USA 281 4.2 20:43:30 12° ESE 20:48:45 34° NE 20:54:31 10° N
ATLAS 3B R/B 4.1 20:42:45 10° NW 20:49:45 37° WSW 20:56:36 10° S
Ariane Rocket 3.5 20:48:21 18° SE 20:51:52 46° ENE 20:56:43 10° N
MetOp-B 4.2 20:46:52 12° SSE 20:51:54 85° WSW 20:57:17 10° NNW
Cosmos 1766 Rocket 4.2 20:48:19 10° NNW 20:52:42 56° W 20:57:03 10° S
GEOS 3 Rocket 4.3 20:55:41 10° NE 21:00:13 31° ESE 21:03:30 16° S
Terra 1.8 20:59:36 21° SSE 21:02:45 66° ENE 21:07:26 10° N
Cosmos 1340 Rocket 3.7 21:03:13 25° SE 21:04:35 32° E 21:08:09 10° NNE
MOS 1 Rocket 3.9 21:02:03 21° SE 21:05:15 50° ENE 21:10:24 10° N
Cosmos 1452 Rocket 3.5 21:02:42 10° NNW 21:07:59 90° WSW 21:11:27 22° SSE
Cosmos 1743 Rocket 4.3 21:04:56 10° N 21:09:03 37° ENE 21:10:55 25° SE
Lacrosse 5 4.4 21:08:31 10° W 21:09:51 11° WSW 21:11:10 10° SW
Lacrosse 5 rocket 4.4 21:09:37 10° NW 21:11:47 13° N 21:13:55 10° NNE
Helios 1B 4.5 21:10:30 10° NNE 21:14:49 69° ESE 21:17:40 21° S
ERS-1 Rocket 3.0 21:12:27 20° S 21:16:01 79° WSW 21:21:05 10° NNW
Cosmos 1408 Rocket 3.5 21:14:24 10° N 21:18:52 85° E 21:21:17 27° S
Meteor 2-10 4.2 21:15:54 10° N 21:21:24 64° ENE 21:24:13 28° SSE
USA 245 2.6 21:22:29 43° WSW 21:22:40 44° W 21:24:54 10° NNW
Cosmos 1626 4.3 21:24:36 11° ENE 21:24:36 11° ENE 21:24:58 10° ENE
Nadezhda 4 Rocket 4.1 21:21:16 22° SSE 21:25:16 60° E 21:31:25 10° NNE
Cosmos 2279 Rocket 4.2 21:19:57 10° NNW 21:26:07 70° W 21:30:55 17° S
Spot 1 4.1 21:22:26 10° NNE 21:26:28 54° ESE 21:28:04 33° SSE
Cosmos 614 Rocket 4.4 21:25:40 29° SSE 21:27:44 42° ESE 21:32:40 10° NNE
SPOT 5 4.1 21:26:54 12° SSW 21:30:37 33° W 21:34:38 10° NNW
Meteor 1-19 Rocket 4.2 21:28:37 19° S 21:33:00 81° E 21:38:47 10° NNE
Cosmos 1603 4.1 21:29:14 10° SW 21:34:50 64° WNW 21:40:32 10° NNE
Cosmos 1833 Rocket 4.3 21:35:26 16° E 21:35:26 16° E 21:38:40 10° ENE
Okean 1 3.6 21:33:59 23° SSW 21:36:15 63° W 21:40:07 10° N
Cosmos 1151 Rocket 3.1 21:37:10 39° SSE 21:38:34 60° E 21:42:51 10° NNE
Cosmos 2369 Rocket 4.0 21:35:46 10° NW 21:40:08 24° WSW 21:44:28 10° SSW
Cosmos 1975 3.7 21:39:03 10° N 21:42:38 33° ENE 21:43:09 32° E
Meteor 1-11 Rocket 4.1 21:38:23 10° NNW 21:44:00 63° W 21:47:34 23° S
Meteor 2-17 Rocket 4.3 21:41:44 23° S 21:45:38 85° E 21:51:43 10° N
FALCON 9 R/B 4.0 21:40:48 10° WSW 21:46:46 42° S 21:58:41 19° SE
Cosmos 1302 Rocket 3.9 21:45:29 10° NNW 21:50:43 88° ENE 21:52:42 39° SSE
Cosmos 1536 4.0 21:47:47 10° NNW 21:51:22 35° W 21:53:08 23° SW
Cosmos 1726 4.1 21:50:29 10° NW 21:52:40 18° W 21:53:59 14° WSW
Cosmos 1500 Rocket 4.0 21:49:29 10° NNW 21:53:41 53° W 21:55:23 32° SSW
USA 306 2.9 21:50:45 10° WNW 21:54:31 51° SW 21:54:47 49° SSW
Cosmos 1656 4.3 21:50:42 10° NNW 21:55:55 43° ENE 21:58:06 30° ESE
Cosmos 1805 2.9 21:57:35 10° N 22:01:18 74° E 22:01:33 70° ESE
Lacrosse 4 Rocket 2.3 21:57:42 10° NNW 22:01:33 38° NE 22:02:26 33° E
Cosmos 1733 3.6 21:59:17 10° NNW 22:02:40 47° W 22:03:12 42° WSW
H-2A R/B 4.1 22:02:15 21° E 22:03:02 22° ENE 22:06:17 10° NNE
Cosmos 1805 Rocket 4.2 21:59:59 10° NNW 22:04:15 50° W 22:05:48 34° SSW
Cosmos 2026 Rocket 4.0 22:02:10 36° SSE 22:04:45 65° E 22:10:56 10° NNE
ISS -1.6 22:05:08 10° W 22:06:48 18° WSW 22:06:48 18° WSW
IRIDIUM 104 4.3 22:02:40 10° N 22:07:54 70° E 22:09:23 46° SSE
NOSS 3-3 (A) 3.7 22:08:04 38° S 22:10:05 63° ESE 22:16:08 10° NE
Cosmos 1627 Rocket 4.5 22:07:49 37° SSE 22:10:26 71° E 22:16:42 10° NNE
Cosmos 1633 Rocket 3.3 22:06:37 10° N 22:10:56 51° ENE 22:11:28 48° ESE
USA 59 Rocket 0.2 22:07:35 10° NW 22:11:41 81° NE 22:13:06 48° SE
Landsat 5 4.1 22:09:24 10° N 22:13:01 45° WNW 22:14:26 30° SW
Cosmos 1666 Rocket 3.5 22:08:44 10° N 22:13:02 66° E 22:13:32 59° ESE
NOSS 2-1 (E) 3.7 22:09:39 10° NW 22:13:47 84° NE 22:15:08 50° SE
Cosmos 1340 3.4 22:12:05 10° NNW 22:15:14 36° W 22:15:25 36° WSW
Chandra Rocket (1) 4.4 21:59:07 10° WSW 22:16:45 34° SSW 22:18:40 31° S
IRIDIUM 114 4.2 22:11:48 10° N 22:17:03 84° E 22:18:30 49° S
Cosmos 220 Rocket 4.2 22:18:08 42° SW 22:19:28 69° WNW 22:23:48 10° NNE
Sich 1 4.4 22:16:13 10° NNW 22:20:09 33° W 22:21:38 26° SW
CZ-2C R/B 3.5 22:18:50 10° NNE 22:23:18 65° ESE 22:23:38 63° SE
Cosmos 1818 3.5 22:21:17 33° SSW 22:23:50 86° ESE 22:29:21 10° NE
IRIDIUM 103 4.3 22:20:57 10° N 22:26:12 81° W 22:27:37 49° S
NOSS 2-1 (D) 3.7 22:22:18 10° NW 22:26:25 73° SW 22:27:17 58° S
ALOS 2 4.3 22:26:21 21° E 22:27:05 22° ENE 22:30:25 10° NNE
USA 281 3.6 22:30:22 35° SSW 22:32:57 53° WSW 22:39:25 10° NNW
Cosmos 1697 Rocket 3.7 22:28:13 10° N 22:33:25 37° ENE 22:35:28 28° E
Meteor 2-4 Rocket 4.0 22:33:18 34° SSW 22:35:55 68° WNW 22:41:52 10° N
Cosmos 1674 4.0 22:37:26 28° NE 22:37:26 28° NE 22:39:31 10° NNE
Cosmos 1607 4.2 22:37:14 45° SE 22:38:06 47° ESE 22:44:17 10° NE
Cosmos 1553 Rocket 4.1 22:32:19 10° N 22:38:19 60° E 22:39:56 45° SE
GEOS 3 Rocket 4.4 22:33:23 10° NNE 22:38:22 49° NW 22:43:15 10° WSW
NOSS 3-3 (C) 3.7 22:38:08 33° SW 22:40:45 85° NW 22:47:03 10° NE
Terra 4.2 22:38:27 10° WSW 22:40:47 14° W 22:43:07 10° WNW
Cosmos 1980 Rocket 4.0 22:37:01 10° N 22:41:31 23° NE 22:44:37 15° E
Cosmos 1066 Rocket 4.2 22:41:55 52° S 22:43:24 81° E 22:49:18 10° NNE
Cosmos 2285 Rocket 4.5 22:44:29 39° ESE 22:45:16 41° E 22:51:08 10° NNE
Cosmos 407 Rocket 4.4 22:49:43 33° E 22:49:43 33° E 22:54:07 10° NE
ARIANE 5 R/B 2.5 22:50:12 74° WSW 22:50:19 74° WSW 22:54:38 10° NNW
Lacrosse 5 rocket 4.2 22:49:10 10° NNW 22:51:39 15° NNE 22:54:04 10° NE
Cosmos 1269 Rocket 4.3 22:54:33 40° SW 22:56:18 62° WNW 23:01:33 10° NNE
Cosmos 1626 3.5 22:57:25 29° WNW 22:57:25 29° WNW 22:59:50 10° NNW
Cosmos 2251 Rocket 4.2 23:01:47 38° E 23:01:47 38° E 23:06:24 10° NE
CZ-3 Stage 3 4.1 22:38:42 10° WSW 23:01:58 38° S 23:03:03 37° S
SL-8 R/B 4.5 23:02:33 10° WNW 23:07:11 50° N 23:10:29 18° E
PSLV R/B 4.4 23:03:31 10° N 23:07:28 51° WNW 23:07:35 51° W
Cosmos 1707 3.6 23:09:21 41° NNE 23:09:21 41° NNE 23:11:55 10° NNE
BREEZE-M DEB (TANK) 4.3 23:08:46 10° NW 23:14:08 13° E 23:14:57 10° E
Cosmos 2266 Rocket 4.0 23:12:28 53° SE 23:13:37 62° E 23:19:46 10° NNE
Spot 4 3.6 23:13:59 83° SSE 23:14:10 90° WSW 23:18:58 10° NNW
Cosmos 1842 3.9 23:15:46 51° N 23:15:46 51° N 23:18:38 10° N
Cosmos 1655 Rocket 4.5 23:15:56 42° ESE 23:17:07 46° E 23:23:10 10° NNE
Cosmos 1833 Rocket 2.8 23:17:04 49° SW 23:18:31 72° WNW 23:24:09 10° NNE
Cosmos 2082 Rocket 3.0 23:23:06 37° ESE 23:23:06 37° ESE 23:28:14 10° NE
Cosmos 2360 4.2 23:18:46 10° NNW 23:24:26 65° WSW 23:25:03 60° SW
ATLAS CENTAUR R/B 4.4 23:11:40 10° NW 23:25:56 89° SW 23:31:47 32° SE
Cosmos 1515 Rocket 4.2 23:28:43 45° W 23:28:48 45° WNW 23:32:57 10° N
CZ-2C R/B 4.5 23:27:23 28° ESE 23:29:13 36° ENE 23:42:42 10° N
Cosmos 2228 Rocket 4.3 23:31:44 32° ENE 23:31:44 32° ENE 23:35:19 10° NNE
Meteor 1-22 Rocket 4.3 23:27:54 10° N 23:33:10 57° ENE 23:33:54 53° ESE
SL-08 ROCKET BODY 4.4 23:33:08 60° SSE 23:34:19 80° E 23:40:31 10° N
Meteor 1-15 Rocket 4.3 23:31:50 10° N 23:37:27 64° ENE 23:38:16 57° ESE
H-2A R/B 3.7 23:38:15 33° W 23:38:15 33° W 23:41:39 10° NNW
H-2A R/B 2.7 23:34:39 10° NNE 23:38:23 46° ENE 23:38:23 46° ENE
Lacrosse 4 Rocket 3.5 23:36:31 10° WNW 23:38:21 18° W 23:38:21 18° W
Cosmos 1733 Rocket 4.3 23:36:04 10° NNE 23:39:56 30° ENE 23:39:58 30° ENE
Cosmos 1869 Rocket 3.6 23:38:31 10° N 23:42:30 74° NNW 23:42:30 74° NNW
Cosmos 1470 4.1 23:41:30 10° NNW 23:43:59 32° NW 23:43:59 32° NW
Cosmos 1400 Rocket 3.6 23:54:09 46° NE 23:54:09 46° NE 23:57:13 10° NNE
